Find Starlink 4591

NORAD ID: 53607 Int'l Des: 2022-104 Owner: SPXS Country: US Constellation: starlink operational
LEOCIRCULAR

リアルタイム位置

3D地球を読み込み中...

Starlink 4591について

説明を読み込み中...

次回通過

Passes for default location (London). Set your location on the main map for personalized predictions.

高度履歴

Loading altitude history...

軌道要素

1 53607U 22104V 26129.95732312 .00000924 00000-0 76116-4 0 9992
2 53607 53.2181 324.1319 0001214 86.4562 273.6569 15.08850648204936
Epoch: May 9, 2026 • Age: 16 hours

現在のステータス

高度 543.9 km
速度 7.60 km/s
衛星直下点 46.09°N, 84.07°W
打ち上げ日 Aug 28, 2022
運用期間 3.6 years
タイプ internet

技術仕様

分類 Payload
質量 300.00 kg
乾燥質量 290.00 kg
総質量 300.00 kg
長さ 0.20 m
直径 2.80 m
スパン 9.00 m
形状 Box + pan
製造者 SPXS
バスタイプ Starlink
フェーズステータス In Orbit
所有者/国 SPXS/US

Most Searched